Location: Newark
(40.9833°N, 0.0333°W)
Time: 00:25:30
(UTC+00:00)

deb Explorer IX - Pass Details

Date: 03 November 2020
Orbit: 537 x 1105 km, 38.8° (Epoch: 02 December)

Event Time Altitude Azimuth Distance (km) Brightness Sun altitude
Rises 04:37:42 0° 258° (WSW) 3,112 - -22.3°
Reaches altitude 10° 04:39:57 10° 256° (WSW) 2,274 - -21.8°
Exits shadow 04:43:19 41° 244° (WSW) 1,170 ? -21.2°
Maximum altitude 04:45:19 70° 174° (S) 897 ? -20.8°
Drops below altitude 10° 04:51:42 10° 91° (E) 2,678 ? -19.6°
Sets 04:54:32 0° 90° (E) 3,707 ? -19.1°
